Date,TemperatureHighF,TemperatureAvgF,TemperatureLowF,DewpointHighF,DewpointAvgF,DewpointLowF,HumidityHigh,HumidityAvg,HumidityLow,PressureMaxIn,PressureMinIn,WindSpeedMaxMPH,WindSpeedAvgMPH,GustSpeedMaxMPH,PrecipitationSumIn
2013-1-1,76,64,53,66,60,51,98,87,66,30.10,29.93,16,4,25,0.09
2013-1-2,54,48,42,50,43,40,94,85,76,30.19,30.00,7,3,14,0.04
2013-1-3,48,40,36,40,35,25,100,81,59,30.36,30.18,10,4,11,0.30
2013-1-4,59,44,35,36,29,22,72,57,29,30.44,30.32,9,3,13,0.00
2013-1-5,52,46,40,38,34,29,71,61,51,30.37,30.24,8,2,10,0.00
2013-1-6,50,46,43,46,42,38,93,84,64,30.29,30.19,11,3,11,0.09
2013-1-7,66,49,38,40,37,32,93,68,31,30.33,30.19,11,3,14,0.01
2013-1-8,69,57,46,58,50,38,86,75,64,30.26,30.14,8,2,11,0.00
2013-1-9,67,64,60,66,61,55,100,91,80,30.24,30.17,8,3,10,0.00
2013-1-10,72,65,61,66,63,58,100,93,82,30.23,30.00,19,5,19,0.44
2013-1-11,81,69,62,68,64,59,100,86,60,30.14,30.05,13,4,21,0.00
2013-1-12,76,68,65,69,66,65,100,94,75,30.10,29.97,14,4,18,0.00
2013-1-13,75,71,62,69,67,60,95,86,79,30.02,29.93,21,6,22,0.04
2013-1-14,64,52,41,60,50,41,100,94,82,30.11,30.00,11,4,12,0.00
2013-1-15,69,55,42,64,53,42,100,94,83,30.07,29.92,8,2,11,0.44
2013-1-16,58,45,39,57,44,38,100,95,89,30.06,29.93,8,4,9,0.06
2013-1-17,51,41,33,37,33,30,97,76,53,30.37,30.05,17,7,21,0.02
2013-1-18,61,45,34,38,34,30,86,69,38,30.52,30.37,14,3,15,0.00
2013-1-19,68,49,38,45,39,33,92,70,42,30.40,30.24,7,1,10,0.00
2013-1-20,70,51,38,49,43,37,97,76,36,30.28,30.12,5,1,8,0.00
2013-1-21,68,56,42,44,42,38,97,61,38,30.22,30.12,11,3,11,0.00
2013-1-22,64,47,39,38,31,22,83,57,28,30.37,30.20,8,3,10,0.00
2013-1-23,70,52,36,50,42,32,93,72,43,30.41,30.29,14,3,17,0.00
2013-1-24,76,58,44,56,51,44,100,79,47,30.35,30.21,14,3,17,0.19
2013-1-25,70,59,47,56,52,47,100,81,56,30.28,30.14,24,5,27,0.00
2013-1-26,77,61,53,62,56,51,100,84,53,30.25,30.17,10,2,11,0.00
2013-1-27,73,58,48,61,54,47,100,87,63,30.32,30.23,11,2,12,0.00
2013-1-28,76,61,53,64,58,53,100,89,64,30.28,30.14,12,3,15,0.00
2013-1-29,75,69,65,69,66,62,96,90,81,30.14,29.85,21,7,27,0.44
2013-1-30,72,59,43,67,53,29,93,81,55,30.11,29.69,30,10,40,0.08
2013-1-31,61,47,33,37,30,21,84,57,23,30.32,30.11,9,3,11,0.00
2013-2-1,63,49,41,38,33,25,73,56,28,30.40,30.29,14,3,15,0.00
2013-2-2,67,49,33,49,36,21,92,61,30,30.37,30.18,14,3,22,0.00
2013-2-3,69,55,40,50,40,24,96,63,18,30.26,30.12,9,2,12,0.01
2013-2-4,64,54,44,52,42,32,96,66,45,30.12,29.99,7,1,8,0.08
2013-2-5,69,56,52,62,55,52,100,95,76,30.03,29.95,7,2,7,2.24
2013-2-6,74,60,53,60,56,52,100,87,57,30.15,30.00,8,2,8,0.00
2013-2-7,78,63,53,60,57,52,100,83,53,30.01,29.78,18,4,21,0.00
2013-2-8,75,57,48,61,52,48,100,84,47,30.18,29.92,11,2,14,0.05
2013-2-9,68,54,44,52,46,39,92,76,49,30.28,30.14,9,4,12,0.05
2013-2-10,70,64,54,67,60,51,92,87,81,30.14,29.99,17,7,19,0.60
2013-2-11,70,62,55,67,59,53,96,91,76,30.14,30.01,12,4,17,0.00
2013-2-12,70,58,54,68,56,52,95,93,88,30.07,29.78,25,5,25,0.00
2013-2-13,69,52,42,66,48,39,93,88,74,30.10,29.78,12,4,14,0.00
2013-2-14,62,46,39,42,39,37,96,79,43,30.19,30.06,8,2,8,0.00
2013-2-15,70,51,37,44,39,31,100,69,27,30.21,30.06,9,2,11,0.00
2013-2-16,54,47,35,40,25,11,71,45,21,30.33,30.12,19,5,24,0.00
2013-2-17,60,42,27,34,23,15,79,51,22,30.42,30.29,11,2,14,0.00
2013-2-18,67,53,39,53,44,33,96,71,48,30.33,30.06,23,6,23,0.00
2013-2-19,69,58,46,60,47,23,95,69,21,30.23,30.00,23,6,28,0.00
2013-2-20,62,48,39,33,26,16,65,45,22,30.31,30.12,11,3,12,0.00
2013-2-21,66,56,43,63,45,30,94,69,51,30.11,29.90,13,5,17,0.00
2013-2-22,70,65,61,67,62,53,100,89,67,30.00,29.88,19,3,22,0.00
2013-2-23,61,56,54,60,55,51,100,95,88,29.98,29.78,11,3,11,0.00
2013-2-24,80,58,46,60,52,45,100,83,50,30.03,29.83,8,2,9,0.22
2013-2-25,67,62,58,66,60,56,100,94,83,29.86,29.52,24,5,26,2.99
2013-2-26,65,56,49,64,43,36,95,64,39,29.95,29.54,20,6,21,0.00
2013-2-27,67,54,44,48,42,36,91,68,35,30.05,29.93,15,2,18,0.00
2013-2-28,59,52,41,47,35,26,90,54,28,30.12,30.01,11,3,15,0.00
2013-3-1,61,46,39,35,32,25,77,60,25,30.18,30.02,11,2,11,0.00
2013-3-2,48,40,34,29,26,21,70,56,43,30.25,30.13,14,5,15,0.00
2013-3-3,56,42,34,42,21,11,82,47,18,30.27,30.15,11,2,13,0.00
2013-3-4,66,50,36,54,42,32,92,75,50,30.20,30.00,14,3,15,0.00
2013-3-5,74,64,48,62,53,38,81,67,44,30.17,29.95,28,8,30,0.00
2013-3-6,62,49,40,40,28,20,81,49,21,30.30,30.17,11,4,14,0.00
2013-3-7,68,44,36,42,33,27,90,67,21,30.37,30.07,8,1,12,0.00
2013-3-8,78,55,41,46,38,18,96,61,12,30.34,30.20,8,1,11,0.00
2013-3-9,73,61,47,58,51,44,96,73,39,30.23,30.06,15,4,17,0.00
2013-3-10,75,65,59,63,60,57,93,82,65,30.07,29.95,15,6,23,0.00
2013-3-11,68,57,46,66,53,43,100,87,68,30.01,29.86,17,4,17,0.41
2013-3-12,68,50,40,43,37,32,91,65,30,30.21,30.01,12,3,12,0.00
2013-3-13,69,55,43,40,28,14,82,43,13,30.38,30.20,11,3,13,0.00
2013-3-14,68,51,39,40,28,12,72,45,13,30.47,30.31,9,2,9,0.00
2013-3-15,74,58,44,51,44,31,100,64,22,30.33,30.16,17,5,23,0.00
2013-3-16,76,63,50,58,53,48,100,73,40,30.16,30.01,20,5,28,0.00
2013-3-17,74,63,55,63,59,54,100,87,59,30.03,29.91,16,2,17,0.00
2013-3-18,81,70,62,68,65,59,97,85,61,29.94,29.80,24,4,24,0.00
2013-3-19,83,67,57,61,49,39,87,56,25,30.06,29.90,10,3,20,0.00
2013-3-20,68,58,49,43,34,22,61,42,20,30.13,30.00,13,3,14,0.00
2013-3-21,71,55,43,42,28,15,67,41,12,30.10,29.91,12,2,12,0.00
2013-3-22,68,58,49,59,49,41,87,71,55,29.95,29.87,11,3,15,0.01
2013-3-23,75,66,61,71,62,51,100,87,68,29.90,29.60,16,2,27,0.51
2013-3-24,82,67,48,70,55,29,97,68,31,29.96,29.57,20,6,21,0.00
2013-3-25,61,48,38,33,24,11,69,44,16,30.25,29.96,14,5,30,0.00
2013-3-26,58,47,39,36,24,16,60,43,22,30.34,29.86,16,3,16,0.00
2013-3-27,66,48,41,39,29,16,79,53,16,30.06,29.89,11,2,14,0.00
2013-3-28,74,54,41,43,35,14,95,57,11,29.99,29.85,13,2,15,0.00
2013-3-29,73,58,43,56,46,31,100,69,26,29.95,29.82,16,3,20,0.00
2013-3-30,76,63,52,60,55,46,100,77,35,29.83,29.65,18,4,22,0.00
2013-3-31,81,67,59,65,61,57,100,84,48,29.69,29.50,21,4,27,0.25
2013-4-1,78,63,56,61,57,53,100,83,45,29.69,29.53,8,1,8,0.00
2013-4-2,82,65,52,57,51,40,100,67,24,29.74,29.62,11,2,13,0.00
2013-4-3,66,59,54,59,56,51,99,89,79,29.68,29.34,21,3,22,1.20
2013-4-4,74,60,54,61,55,50,100,83,59,29.57,29.47,11,3,13,0.00
2013-4-5,69,56,50,50,48,46,93,74,46,29.72,29.56,12,4,17,0.00
2013-4-6,77,58,47,54,46,32,93,70,22,29.79,29.70,11,2,14,0.00
2013-4-7,78,63,51,61,56,51,100,81,49,29.76,29.64,11,2,14,0.00
2013-4-8,82,71,60,70,64,60,100,81,57,29.69,29.59,15,3,21,0.00
2013-4-9,74,70,68,67,66,65,94,87,76,29.69,29.64,5,1,8,0.00
2013-4-10,81,72,64,70,67,63,100,84,65,29.65,29.50,14,4,17,0.00
2013-4-11,80,72,59,72,68,57,100,88,76,29.50,29.19,23,8,30,1.22
2013-4-12,78,62,51,57,49,43,95,66,32,29.58,29.41,11,3,12,0.00
2013-4-13,86,63,52,57,51,42,92,68,24,29.67,29.51,8,1,11,0.00
2013-4-14,68,62,57,64,60,56,100,93,76,29.58,29.31,15,2,21,1.32
2013-4-15,73,68,64,69,66,63,99,92,84,29.65,29.43,5,0,5,0.00
2013-4-16,71,69,67,69,67,65,97,93,85,29.73,29.62,2,0,8,0.00
2013-4-17,85,74,67,72,67,63,96,80,55,29.73,29.62,14,2,15,0.00
2013-4-18,80,73,65,71,68,64,97,86,73,29.62,29.48,16,4,16,0.00
2013-4-19,53,50,44,51,48,44,100,93,87,29.79,29.59,8,2,11,1.12
2013-4-20,71,55,40,45,40,32,100,62,27,29.88,29.73,14,2,16,0.01
2013-4-21,71,53,46,54,47,41,87,78,53,29.82,29.73,4,0,5,0.00
2013-4-22,87,67,54,63,56,47,90,70,38,29.75,29.65,8,2,8,0.00
2013-4-23,83,68,60,65,61,58,95,78,51,29.73,29.65,13,2,14,0.00
2013-4-24,74,68,62,70,65,60,97,89,74,29.76,29.61,11,1,14,0.24
2013-4-25,81,64,54,63,53,44,95,70,43,29.90,29.75,10,3,12,0.00
2013-4-26,86,68,54,58,49,42,81,53,31,29.92,29.82,11,2,11,0.00
2013-4-27,85,71,60,68,63,58,95,77,48,29.83,29.66,17,2,17,0.00
2013-4-28,82,72,67,70,65,61,96,81,55,29.69,29.57,14,3,20,0.00
2013-4-29,88,72,65,70,63,57,93,76,43,29.60,29.50,7,1,11,0.44
2013-4-30,84,74,66,71,67,64,97,81,55,29.56,29.49,10,2,11,0.30
2013-5-1,74,68,62,70,66,60,94,91,82,29.56,29.47,16,2,19,2.10
2013-5-2,74,67,63,67,64,61,95,89,71,29.59,29.51,9,2,11,3.18
2013-5-3,80,64,48,66,59,46,95,84,62,29.57,29.42,10,2,11,0.21
2013-5-4,73,57,44,46,39,28,94,58,22,29.59,29.48,11,4,12,0.00
2013-5-5,70,60,50,54,45,39,85,60,38,29.62,29.46,15,3,16,0.00
2013-5-6,74,60,47,52,48,43,90,67,40,29.64,29.52,17,3,17,0.00
2013-5-7,79,63,53,58,54,51,93,75,44,29.66,29.57,11,1,11,0.00
2013-5-8,87,70,59,68,60,55,95,71,39,29.73,29.62,18,2,18,0.00
2013-5-9,86,72,61,66,61,57,94,71,45,29.75,29.66,14,2,14,0.00
2013-5-10,77,69,65,66,63,59,93,82,59,29.75,29.50,17,3,25,0.39
2013-5-11,78,68,62,66,63,60,94,83,63,29.68,29.55,10,1,11,0.26
2013-5-12,81,71,62,64,57,51,93,64,43,29.74,29.61,11,2,13,0.00
2013-5-13,84,67,53,52,44,36,73,47,21,29.89,29.73,9,2,14,0.00
2013-5-14,87,70,55,58,54,50,86,59,31,29.90,29.77,17,3,17,0.00
2013-5-15,90,74,60,62,56,48,89,58,31,29.83,29.67,11,2,11,0.00
2013-5-16,86,75,67,67,64,61,85,69,49,29.67,29.58,17,3,17,0.00
2013-5-17,86,76,68,68,66,63,90,74,52,29.67,29.59,14,4,14,0.00
2013-5-18,90,79,72,70,67,65,87,69,48,29.69,29.62,17,5,17,0.00
2013-5-19,85,76,70,70,68,66,89,75,58,29.66,29.60,13,3,14,0.00
2013-5-20,93,79,71,70,67,65,88,70,42,29.65,29.58,14,3,14,0.00
2013-5-21,89,76,69,71,67,64,89,73,51,29.61,29.50,14,2,14,0.00
2013-5-22,86,76,69,71,65,61,89,70,47,29.66,29.50,7,1,16,0.00
2013-5-23,96,80,68,68,65,60,87,63,35,29.66,29.56,8,1,12,0.00
2013-5-24,91,79,70,69,63,53,85,58,40,29.78,29.64,12,2,12,0.00
2013-5-25,94,76,61,63,53,45,76,47,21,29.85,29.75,9,2,9,0.00
2013-5-26,91,76,63,67,61,54,83,62,33,29.82,29.74,11,2,11,0.00
2013-5-27,88,77,68,67,63,60,85,64,44,29.78,29.68,12,3,12,0.00
2013-5-28,90,76,63,69,64,59,89,71,44,29.71,29.64,14,3,14,0.00
2013-5-29,88,78,71,72,68,66,86,71,54,29.67,29.61,11,2,11,0.00
2013-5-30,88,79,74,70,68,66,82,69,53,29.68,29.60,21,2,21,0.00
2013-5-31,88,80,75,70,68,67,78,69,56,29.67,29.58,12,3,12,0.00
2013-6-1,86,79,75,73,70,68,85,76,63,29.62,29.55,9,2,9,0.26
2013-6-2,95,80,72,71,68,64,88,69,43,29.60,29.47,17,3,17,0.32
2013-6-3,88,78,70,73,70,67,89,76,57,29.54,29.46,6,1,6,0.26
2013-6-4,96,82,72,74,70,68,89,70,44,29.56,29.49,10,2,10,0.02
2013-6-5,94,81,68,72,69,61,86,70,47,29.56,29.46,17,2,17,0.34
2013-6-6,93,76,66,70,65,62,88,70,46,29.48,29.33,16,2,16,0.00
2013-6-7,89,77,69,69,66,64,85,69,48,29.51,29.38,11,2,16,0.00
2013-6-8,91,80,70,71,68,64,84,67,51,29.67,29.50,20,4,23,0.28
2013-6-9,79,74,70,71,68,65,87,81,71,29.64,29.54,12,2,18,0.28
2013-6-10,86,77,71,72,70,66,88,79,63,29.67,29.57,13,2,14,1.51
2013-6-11,100,83,74,75,72,69,89,71,41,29.71,29.61,11,1,13,0.00
2013-6-12,96,86,79,75,70,68,71,60,45,29.70,29.61,11,4,11,0.00
2013-6-13,98,84,76,72,70,66,81,64,42,29.65,29.48,10,1,10,0.00
2013-6-14,88,80,76,72,68,64,86,67,47,29.56,29.47,5,1,8,0.12
2013-6-15,97,79,71,72,65,61,73,63,45,29.63,29.54,5,1,6,0.00
2013-6-16,81,80,80,74,73,73,80,78,76,29.62,29.61,5,1,5,0.00
2013-6-17,93,83,76,73,71,68,87,68,49,29.63,29.55,18,5,18,0.00
2013-6-18,93,83,71,73,70,65,86,66,46,29.62,29.50,15,5,18,0.83
2013-6-19,93,79,71,74,69,67,90,73,50,29.65,29.55,6,1,7,0.01
2013-6-20,94,81,72,72,70,66,87,69,47,29.70,29.61,14,1,14,0.00
2013-6-21,97,78,72,73,70,66,88,76,45,29.73,29.65,4,1,4,0.20
2013-6-22,96,81,72,72,70,67,90,70,44,29.72,29.61,7,1,7,0.00
2013-6-23,88,78,74,74,71,68,89,82,58,29.70,29.63,4,0,4,0.34
2013-6-24,92,79,73,74,71,68,90,79,53,29.77,29.69,6,0,6,0.06
2013-6-25,95,82,72,74,71,69,90,71,49,29.74,29.63,14,1,14,0.00
2013-6-26,96,81,74,75,71,69,88,73,49,29.69,29.58,14,2,14,0.13
2013-6-27,98,85,76,75,72,70,87,67,44,29.63,29.51,11,2,14,0.00
2013-6-28,99,86,79,76,74,71,85,67,45,29.54,29.37,14,3,17,0.00
2013-6-29,99,83,73,74,70,64,87,65,41,29.41,29.28,12,3,97,0.46
2013-6-30,97,82,72,72,67,60,89,63,35,29.39,29.31,7,0,9,0.00
2013-7-1,95,82,72,68,64,62,74,56,37,29.51,29.38,8,1,12,0.00
2013-7-2,98,82,71,70,66,62,76,60,40,29.62,29.50,11,1,11,0.00
2013-7-3,92,79,73,72,69,67,86,72,51,29.63,29.53,10,1,12,0.04
2013-7-4,89,78,72,73,70,66,87,75,56,29.62,29.52,12,2,16,0.13
2013-7-5,77,74,72,72,70,67,90,86,80,29.69,29.59,13,1,16,0.20
2013-7-6,79,74,71,72,70,68,91,86,73,29.67,29.60,4,0,6,1.98
2013-7-7,80,76,73,73,71,68,90,86,77,29.73,29.62,7,0,9,0.56
2013-7-8,88,77,73,74,71,67,91,82,59,29.78,29.69,10,1,14,0.06
2013-7-9,96,81,71,76,70,66,91,71,45,29.80,29.69,14,2,15,0.00
2013-7-10,94,80,74,74,71,69,87,74,49,29.72,29.65,4,1,6,0.14
2013-7-11,82,77,73,73,70,68,89,82,68,29.62,29.48,17,2,17,2.15
2013-7-12,93,76,71,74,68,65,88,77,50,29.54,29.45,5,0,5,0.20
2013-7-13,93,76,70,75,69,66,91,80,51,29.58,29.47,10,0,10,0.11
2013-7-14,97,80,69,72,68,64,93,71,43,29.64,29.52,7,1,10,0.05
2013-7-15,90,80,74,74,71,69,91,76,54,29.73,29.63,11,2,11,0.00
2013-7-16,93,80,74,73,70,67,85,71,52,29.80,29.70,14,2,14,0.00
2013-7-17,77,74,73,70,69,68,87,85,77,29.82,29.78,2,0,4,0.00
2013-7-23,77,76,76,71,70,69,83,80,78,29.56,29.55,0,0,1,0.00
2013-7-24,94,82,73,74,71,67,86,70,50,29.57,29.48,11,2,13,0.04
2013-7-25,95,79,72,72,69,67,87,73,48,29.62,29.48,7,1,7,0.01
2013-7-26,98,83,72,71,69,65,86,64,40,29.66,29.57,9,1,10,0.00
2013-7-27,85,78,72,72,69,65,86,75,64,29.61,29.50,11,1,23,0.70
2013-7-28,95,85,78,74,72,69,86,66,48,29.60,29.52,10,2,11,0.07
2013-7-29,100,82,75,76,72,69,90,75,45,29.72,29.58,9,1,10,0.01
2013-7-30,97,83,75,77,72,69,88,71,48,29.76,29.66,12,2,12,0.26
2013-7-31,96,82,77,75,72,68,85,72,48,29.71,29.58,10,1,11,0.12
2013-8-1,100,81,73,74,71,66,89,73,44,29.62,29.51,12,2,14,0.57
2013-8-2,102,83,72,75,71,67,92,69,38,29.63,29.52,8,1,9,0.01
2013-8-3,100,85,76,76,72,67,89,66,37,29.67,29.58,11,1,11,0.00
2013-8-4,101,86,77,74,71,68,83,63,40,29.69,29.56,9,1,11,0.00
2013-8-5,98,81,74,77,71,68,88,74,45,29.65,29.55,14,1,14,1.25
2013-8-6,99,83,74,75,72,68,91,72,43,29.63,29.49,11,2,14,0.58
2013-8-7,100,83,74,75,73,69,90,73,45,29.59,29.51,11,1,15,0.00
2013-8-8,100,85,76,75,73,70,88,68,42,29.59,29.50,9,1,10,0.01
2013-8-9,95,84,78,75,72,69,84,67,47,29.66,29.55,11,2,13,0.00
2013-8-10,94,83,76,73,71,68,86,68,48,29.71,29.62,8,1,11,0.00
2013-8-11,96,82,75,75,71,68,84,71,47,29.74,29.67,12,1,14,0.08
2013-8-12,89,81,76,75,72,71,87,75,61,29.73,29.62,11,1,12,0.04
2013-8-13,93,79,73,74,71,68,87,77,49,29.65,29.53,14,2,15,0.92
2013-8-14,88,78,73,72,69,67,90,76,53,29.58,29.50,12,2,15,0.00
2013-8-15,92,78,72,72,69,67,86,74,49,29.59,29.51,4,0,4,0.00
2013-8-16,91,78,72,71,68,66,87,73,49,29.61,29.51,8,1,9,1.17
2013-8-17,76,74,72,71,69,67,89,85,79,29.61,29.53,7,1,8,0.13
2013-8-18,78,73,70,72,69,66,90,87,82,29.66,29.56,11,2,16,3.15
2013-8-19,92,80,73,77,72,69,92,77,52,29.65,29.57,14,2,15,0.02
2013-8-20,89,78,72,74,70,67,91,77,58,29.70,29.60,13,1,13,0.01
2013-8-21,76,74,73,71,70,69,89,87,85,29.72,29.66,2,0,2,0.00
2013-8-22,79,78,76,71,70,69,82,76,72,29.63,29.62,3,0,4,0.00
2013-8-23,86,78,73,71,70,68,88,77,61,29.64,29.55,6,1,8,0.00
2013-8-24,85,76,73,71,69,68,88,79,64,29.73,29.59,5,1,10,0.00
2013-8-25,90,78,72,72,69,67,89,76,52,29.81,29.70,8,1,11,0.00
2013-8-26,95,80,72,69,65,61,85,62,40,29.82,29.70,9,1,11,0.01
2013-8-27,92,77,67,66,62,60,81,62,38,29.74,29.63,6,1,7,0.00
2013-8-28,97,79,69,69,64,61,80,62,40,29.69,29.61,10,1,10,0.00
2013-8-29,99,81,70,71,65,63,81,61,38,29.68,29.57,11,1,11,0.00
2013-8-30,100,83,73,71,67,65,77,61,39,29.64,29.51,10,1,11,0.00
2013-8-31,96,82,75,74,69,64,77,64,46,29.57,29.46,10,1,11,0.00
2013-9-1,94,80,74,74,70,67,85,74,49,29.55,29.47,14,0,16,0.44
2013-9-2,92,82,77,75,72,69,86,72,52,29.59,29.48,0,0,0,0.01
2013-9-3,99,80,72,74,71,66,88,74,43,29.59,29.47,0,0,0,1.28
2013-9-4,97,79,71,76,71,68,91,78,46,29.69,29.57,9,0,13,0.04
2013-9-5,101,82,74,75,71,68,91,72,40,29.73,29.62,9,1,10,0.00
2013-9-6,97,82,73,71,69,66,86,67,41,29.70,29.59,6,0,7,0.00
2013-9-7,99,81,71,71,67,64,82,64,34,29.67,29.56,6,1,9,0.00
2013-9-8,101,82,72,71,68,65,83,65,35,29.60,29.52,9,1,10,0.00
2013-9-9,98,82,72,72,68,66,86,66,42,29.64,29.56,10,1,11,0.00
2013-9-10,98,81,74,74,70,67,85,70,42,29.72,29.62,8,1,17,0.18
2013-9-11,96,79,72,71,69,64,86,72,39,29.72,29.63,8,1,8,0.00
2013-9-12,96,81,72,72,68,65,81,67,44,29.64,29.51,5,0,5,0.00
2013-9-13,98,82,73,70,69,66,85,66,37,29.53,29.41,11,1,11,0.00
2013-9-14,92,79,74,69,66,62,77,64,43,29.60,29.45,9,1,9,0.00
2013-9-15,100,82,69,72,67,59,84,63,35,29.67,29.59,6,1,9,0.18
2013-9-16,98,78,73,74,70,68,89,79,41,29.69,29.59,12,1,12,0.58
2013-9-17,98,81,72,73,70,67,89,71,43,29.69,29.57,7,1,8,0.00
2013-9-18,88,79,74,71,69,67,82,72,55,29.69,29.62,8,2,11,0.00
2013-9-19,92,81,74,70,68,65,81,67,46,29.68,29.59,10,2,10,0.00
2013-9-20,91,80,73,72,71,69,88,75,53,29.63,29.45,11,2,11,0.00
2013-9-21,79,76,71,74,72,67,92,85,75,29.45,29.33,5,1,5,0.43
2013-9-22,84,73,68,67,64,60,88,73,57,29.42,29.34,9,2,9,0.13
2013-9-23,93,74,67,73,65,60,84,73,49,29.49,29.39,5,1,8,0.00
2013-9-24,90,77,70,75,71,66,91,82,61,29.49,29.38,8,1,8,0.51
2013-9-25,92,78,71,71,69,65,92,76,45,29.43,29.35,6,0,6,0.01
2013-9-26,91,79,70,72,68,62,91,70,45,29.56,29.41,8,1,8,0.00
2013-9-27,90,76,69,66,63,61,82,66,41,29.64,29.55,6,1,6,0.00
2013-9-28,91,74,63,64,61,57,83,66,40,29.69,29.61,6,1,6,0.00
2013-9-29,87,74,64,65,62,58,82,67,46,29.66,29.56,6,1,6,0.00
2013-9-30,89,74,69,68,65,63,88,75,48,29.61,29.53,8,0,8,0.04
2013-10-1,92,78,69,70,67,64,90,72,44,29.66,29.57,8,1,8,0.00
2013-10-2,86,75,72,72,69,67,88,83,64,29.67,29.59,5,1,5,0.18
2013-10-3,92,78,72,73,70,68,91,79,55,29.67,29.57,8,1,8,0.37
2013-10-4,90,79,72,75,71,69,93,80,53,29.66,29.59,11,1,11,0.01
2013-10-5,89,79,74,74,71,68,92,76,53,29.65,29.53,9,1,13,0.00
2013-10-6,78,74,67,72,70,62,90,87,78,29.54,29.39,17,1,17,1.46
2013-10-7,79,68,62,62,53,49,84,61,39,29.61,29.47,13,5,14,0.00
2013-10-8,84,67,55,58,54,50,82,64,39,29.62,29.56,13,2,13,0.00
2013-10-9,86,72,64,68,62,56,87,73,52,29.70,29.59,0,0,0,0.00
2013-10-10,90,72,65,66,63,61,87,76,43,29.72,29.60,0,0,0,0.00
2013-10-11,90,74,66,68,64,62,93,74,43,29.67,29.56,0,0,0,0.00
2013-10-12,93,74,67,70,66,63,92,76,45,29.69,29.60,0,0,0,0.00
2013-10-13,91,76,68,68,65,62,89,70,43,29.76,29.66,3,0,3,0.01
2013-10-14,90,74,66,65,63,60,83,69,39,29.72,29.61,7,1,7,0.00
2013-10-15,91,73,64,66,63,59,86,73,42,29.67,29.55,5,0,5,0.00
2013-10-16,89,74,64,69,65,61,91,74,49,29.63,29.51,11,1,11,0.00
2013-10-17,87,75,66,72,67,60,85,75,59,29.57,29.49,11,2,14,0.01
2013-10-18,82,70,63,61,58,56,83,68,46,29.63,29.51,7,2,11,0.00
2013-10-19,66,65,64,56,56,55,75,71,70,29.57,29.52,4,1,5,0.00
2013-11-9,72,64,57,59,53,48,85,69,54,30.27,30.18,5,0,8,0.00
2013-11-10,80,58,56,57,52,50,86,80,43,30.28,30.18,24,1,24,0.00
2013-11-11,81,55,0,54,48,45,85,64,29,30.24,30.13,5,0,5,0.00
2013-11-12,73,56,53,52,45,45,87,67,47,30.44,30.17,11,2,11,0.00
2013-11-13,55,51,0,45,28,13,67,38,19,30.52,30.42,14,2,14,0.00
2013-11-14,69,22,0,47,34,18,68,12,25,30.43,29.97,6,1,6,0.00
2013-11-15,77,12,0,61,49,46,96,17,42,30.17,29.91,6,0,6,0.01
2013-11-16,71,64,62,65,62,61,96,93,79,30.13,30.01,9,1,9,0.00
2013-11-17,81,73,68,72,69,65,95,87,68,30.03,29.94,19,4,21,0.06
2013-11-18,75,68,57,72,59,39,93,74,45,30.10,29.96,13,2,13,0.26
2013-11-19,68,55,48,41,38,34,70,54,35,30.17,30.05,12,3,16,0.00
2013-11-20,79,57,44,58,47,34,94,69,43,30.19,30.07,10,1,10,0.00
2013-11-21,76,62,55,63,56,51,89,81,62,30.27,30.18,9,2,10,0.00
2013-11-22,83,69,61,70,63,58,94,83,62,30.25,30.16,11,1,11,0.01
2013-11-23,67,59,49,64,55,39,94,84,69,30.31,30.18,15,4,18,0.00
2013-11-24,56,46,39,39,27,17,69,50,24,30.41,30.30,24,5,24,0.00
2013-11-25,59,50,40,57,43,27,94,76,57,30.34,29.92,8,2,11,0.14
2013-11-26,67,52,43,65,50,42,98,92,84,29.95,29.73,17,4,18,1.30
2013-11-27,50,41,31,32,27,23,81,60,39,30.39,30.11,13,4,13,0.00
2013-11-28,51,37,31,32,24,17,81,62,27,30.49,30.36,9,2,9,0.00
2013-11-29,65,42,32,33,26,14,78,60,15,30.55,30.42,9,1,9,0.00
2013-11-30,76,50,36,49,39,28,96,67,32,30.46,30.26,5,1,7,0.00
2013-12-1,74,56,41,56,47,40,99,74,31,30.29,30.01,10,0,10,0.00
2013-12-2,69,56,48,60,52,48,99,87,62,30.01,29.80,8,0,8,0.00
2013-12-3,75,68,58,66,63,57,98,86,70,29.85,29.75,24,6,25,0.02
2013-12-4,78,72,67,71,68,65,97,89,73,29.96,29.83,21,5,21,0.01
2013-12-5,79,75,73,72,71,70,94,87,77,30.02,29.94,23,9,23,0.07
2013-12-6,80,72,51,72,67,40,95,85,31,30.15,29.91,23,9,27,0.53
2013-12-7,79,49,41,53,42,39,98,81,32,30.28,30.05,13,3,14,0.06
2013-12-8,74,57,43,68,52,37,99,85,33,30.32,30.02,13,1,13,0.01
2013-12-9,78,64,55,68,54,30,94,75,22,30.28,30.01,13,2,13,0.01
2013-12-10,78,51,39,59,43,34,95,77,38,30.35,30.00,18,3,18,0.22
2013-12-11,66,52,36,58,41,31,96,68,33,30.34,30.04,7,2,9,0.00
2013-12-12,59,49,38,41,29,16,72,48,21,30.44,30.32,14,4,15,0.00
2013-12-13,64,48,33,47,36,23,79,65,51,30.32,29.98,6,1,8,0.00
2013-12-14,77,63,51,66,58,45,95,84,66,29.96,29.76,15,3,18,0.07
2013-12-15,51,44,35,49,37,30,91,76,61,30.25,29.93,14,4,17,0.00
2013-12-16,69,45,35,42,35,30,92,72,25,30.29,30.19,4,1,6,0.00
2013-12-17,70,50,37,42,36,28,95,66,22,30.28,30.16,8,1,9,0.00
2013-12-18,71,52,40,43,38,31,97,64,23,30.32,30.19,9,1,10,0.00
2013-12-19,73,56,41,59,50,39,98,83,58,30.20,30.02,8,1,11,0.00
2013-12-20,77,66,57,68,63,57,99,91,73,30.07,29.94,14,2,14,0.00
2013-12-21,75,72,69,71,69,68,97,92,87,29.94,29.78,20,7,27,0.01
2013-12-22,74,61,54,71,59,52,97,94,88,30.06,29.78,24,5,32,3.20
2013-12-23,54,47,37,54,43,31,97,87,75,30.35,30.03,14,4,14,0.00
2013-12-24,53,40,32,31,28,26,84,63,38,30.45,30.32,14,6,15,0.00
2013-12-25,50,41,37,34,28,24,69,60,38,30.35,30.24,13,6,13,0.00
2013-12-26,55,45,39,39,34,29,81,64,46,30.32,30.22,11,2,13,0.00
2013-12-27,62,51,43,37,34,32,70,53,33,30.34,30.22,13,3,33,0.00
2013-12-28,52,47,45,47,45,37,99,94,56,30.22,29.88,13,3,14,2.82
2013-12-29,60,49,43,52,46,39,99,90,69,30.07,29.86,6,1,9,0.00
2013-12-30,61,50,41,50,46,41,99,85,61,30.25,30.04,4,0,5,0.00
2013-12-31,51,45,42,46,40,37,93,84,77,30.36,30.22,9,3,12,0.02
2014-1-1,64,51,43,56,48,41,97,90,75,30.28,29.99,4,0,6,0.13
2014-1-2,60,50,38,57,44,26,97,79,52,30.25,29.84,13,4,19,0.56